Location: Newark
(31.5350°N, 35.0986°E)
Time: 01:41:10
(UTC+00:00)

Transit 4A - Pass Details

Date: 23 October 2019
Orbit: 869 x 976 km, 66.8° (Epoch: 20 November)

Event Time Altitude Azimuth Distance (km) Brightness Sun altitude
Rises 10:03:28 0° 346° (NNW) 3,528 10.6 46.1°
Reaches altitude 10° 10:06:23 10° 358° (N) 2,568 9.9 45.9°
Maximum altitude 10:11:25 28° 56° (ENE) 1,595 9.1 45.6°
Drops below altitude 10° 10:16:20 10° 114° (ESE) 2,516 10.4 45.3°
Sets 10:19:08 0° 126° (SE) 3,444 11.0 45.1°
